Location: ??
(35.5052°N, 139.7262°E)
Time: 16:47:39
(UTC+00:00)

NOSS 0 Rocket - Pass Details

Date: 20 June 2021
Orbit: 934 x 956 km, 70.0° (Epoch: 29 July)

Event Time Altitude Azimuth Distance (km) Brightness Sun altitude
Exits shadow 12:38:22 54° 156° (SSE) 1,135 3.9 -24.1°
Maximum altitude 12:39:29 64° 109° (ESE) 1,042 3.9 -24.2°
Drops below altitude 10° 12:45:37 10° 29° (NNE) 2,679 6.7 -24.9°
Sets 12:48:11 0° 27° (NNE) 3,631 7.5 -25.1°
